"Sample Date","Sample Time","Sample Value","Units","Flow Rate","Sample Interval","Number Channels","Micron Size 0","Counts/Channel 0","Micron Size 1","Counts/Channel 1","Micron Size 2","Counts/Channel 2","Micron Size 3","Counts/Channel 3","Micron Size 4","Counts/Channel 4","Micron Size 5","Counts/Channel 5","Micron Size 6","Counts/Channel 6","Micron Size 7","Counts/Channel 7","Micron Size 8","Counts/Channel 8","Micron Size 9","Counts/Channel 9","Micron Size 10","Counts/Channel 10","Micron Size 11","Counts/Channel 11","Micron Size 12","Counts/Channel 12","Micron Size 13","Counts/Channel 13","Micron Size 14","Counts/Channel 14","Micron Size 15","Counts/Channel 15","Micron Size 16","Counts/Channel 16","Micron Size 17","Counts/Channel 17","Micron Size 18","Counts/Channel 18","Micron Size 19","Counts/Channel 19","Micron Size 20","Counts/Channel 20","Micron Size 21","Counts/Channel 21","Micron Size 22","Counts/Channel 22","Micron Size 23","Counts/Channel 23","Micron Size 24","Counts/Channel 24","Micron Size 25","Counts/Channel 25","Micron Size 26","Counts/Channel 26","Micron Size 27","Counts/Channel 27","Micron Size 28","Counts/Channel 28","Micron Size 29","Counts/Channel 29","Micron Size 30","Counts/Channel 30","Micron Size 31","Counts/Channel 31"
"03/07/08","15:00:02",59864.000,"cc",28333.291,6.00,6,0.100,46558.000,0.200,9118.000,0.300,2144.000,0.500,1562.000,1.000,482.000,5.000,0
"03/07/08","15:00:08",46059.000,"cc",28242.459,6.00,6,0.100,34650.000,0.200,7383.000,0.300,1985.000,0.500,1594.000,1.000,447.000,5.000,0
"03/07/08","15:00:14",46581.000,"cc",28334.248,6.00,6,0.100,35402.000,0.200,7353.000,0.300,1826.000,0.500,1565.000,1.000,435.000,5.000,0
"03/07/08","15:00:20",54601.000,"cc",28394.859,6.00,6,0.100,42121.000,0.200,8486.000,0.300,2059.000,0.500,1513.000,1.000,422.000,5.000,0
"03/07/08","15:00:26",105172.000,"cc",28381.904,6.00,6,0.100,84947.000,0.200,15105.000,0.300,2694.000,0.500,1866.000,1.000,560.000,5.000,0
"03/07/08","15:00:32",103452.000,"cc",28254.188,6.00,6,0.100,82322.000,0.200,14944.000,0.300,3184.000,0.500,2275.000,1.000,724.000,5.000,3.000
"03/07/08","15:00:38",99097.000,"cc",28320.449,6.00,6,0.100,78817.000,0.200,14416.000,0.300,2984.000,0.500,2213.000,1.000,667.000,5.000,0
"03/07/08","15:00:44",84646.000,"cc",28338.357,6.00,6,0.100,67763.000,0.200,12362.000,0.300,2343.000,0.500,1685.000,1.000,493.000,5.000,0
"03/07/08","15:00:50",88023.000,"cc",28304.033,6.00,6,0.100,70892.000,0.200,12651.000,0.300,2322.000,0.500,1703.000,1.000,455.000,5.000,0
"03/07/08","15:00:56",84438.000,"cc",28289.994,6.00,6,0.100,67188.000,0.200,12443.000,0.300,2407.000,0.500,1827.000,1.000,573.000,5.000,0
"03/07/08","15:01:02",56915.000,"cc",28317.213,6.00,6,0.100,44025.000,0.200,8826.000,0.300,1995.000,0.500,1603.000,1.000,466.000,5.000,0
"03/07/08","15:01:08",54730.000,"cc",28333.158,6.00,6,0.100,42666.000,0.200,8413.000,0.300,1849.000,0.500,1384.000,1.000,418.000,5.000,0
"03/07/08","15:01:14",50028.000,"cc",28394.375,6.00,6,0.100,38456.000,0.200,7803.000,0.300,1875.000,0.500,1512.000,1.000,382.000,5.000,0
"03/07/08","15:01:20",58933.000,"cc",28358.395,6.00,6,0.100,45616.000,0.200,9035.000,0.300,2115.000,0.500,1688.000,1.000,479.000,5.000,0
"03/07/08","15:01:26",42784.000,"cc",28278.188,6.00,6,0.100,31742.000,0.200,7109.000,0.300,1971.000,0.500,1570.000,1.000,392.000,5.000,0
"03/07/08","15:01:32",46235.000,"cc",28258.584,6.00,6,0.100,34530.000,0.200,7404.000,0.300,2057.000,0.500,1755.000,1.000,489.000,5.000,0
"03/07/08","15:01:38",45460.000,"cc",28353.023,6.00,6,0.100,34549.000,0.200,7241.000,0.300,1888.000,0.500,1370.000,1.000,412.000,5.000,0
"03/07/08","15:01:44",61060.000,"cc",28309.789,6.00,6,0.100,47226.000,0.200,9319.000,0.300,2233.000,0.500,1737.000,1.000,545.000,5.000,0
"03/07/08","15:01:50",68630.000,"cc",28304.147,6.00,6,0.100,53464.000,0.200,10592.000,0.300,2306.000,0.500,1767.000,1.000,501.000,5.000,0
"03/07/08","15:01:56",57960.000,"cc",28369.697,6.00,6,0.100,44897.000,0.200,8798.000,0.300,2143.000,0.500,1638.000,1.000,484.000,5.000,0
"03/07/08","15:02:02",73441.000,"cc",28347.029,6.00,6,0.100,58563.000,0.200,10729.000,0.300,2139.000,0.500,1551.000,1.000,459.000,5.000,0
"03/07/08","15:02:08",179054.000,"cc",28270.721,6.00,6,0.100,147073.000,0.200,26769.000,0.300,2971.000,0.500,1746.000,1.000,495.000,5.000,0
"03/07/08","15:02:14",147233.000,"cc",28323.443,6.00,6,0.100,122594.000,0.200,20166.000,0.300,2549.000,0.500,1495.000,1.000,429.000,5.000,0
"03/07/08","15:02:20",159558.000,"cc",28306.424,6.00,6,0.100,132093.000,0.200,22193.000,0.300,2954.000,0.500,1852.000,1.000,466.000,5.000,0
"03/07/08","15:02:26",124553.000,"cc",28367.311,6.00,6,0.100,102131.000,0.200,17289.000,0.300,2638.000,0.500,1912.000,1.000,583.000,5.000,0
"03/07/08","15:02:32",74008.000,"cc",28293.115,6.00,6,0.100,58945.000,0.200,10880.000,0.300,2166.000,0.500,1573.000,1.000,444.000,5.000,0
"03/07/08","15:02:38",88357.000,"cc",28307.578,6.00,6,0.100,70138.000,0.200,13124.000,0.300,2631.000,0.500,1888.000,1.000,576.000,5.000,0
"03/07/08","15:02:44",67190.000,"cc",28278.746,6.00,6,0.100,53377.000,0.200,9945.000,0.300,1973.000,0.500,1474.000,1.000,421.000,5.000,0
"03/07/08","15:02:50",142938.000,"cc",28355.348,6.00,6,0.100,116849.000,0.200,20287.000,0.300,3084.000,0.500,2045.000,1.000,673.000,5.000,0
"03/07/08","15:02:56",153580.000,"cc",28268.662,6.00,6,0.100,125849.000,0.200,21727.000,0.300,3245.000,0.500,2086.000,1.000,673.000,5.000,0
"03/07/08","15:03:02",131882.000,"cc",28327.813,6.00,6,0.100,108021.000,0.200,18463.000,0.300,2812.000,0.500,1983.000,1.000,603.000,5.000,0
"03/07/08","15:03:08",142506.000,"cc",28249.994,6.00,6,0.100,116518.000,0.200,19947.000,0.300,3118.000,0.500,2222.000,1.000,701.000,5.000,0
"03/07/08","15:03:14",94007.000,"cc",28359.369,6.00,6,0.100,76192.000,0.200,13385.000,0.300,2292.000,0.500,1637.000,1.000,501.000,5.000,0
"03/07/08","15:03:20",98235.000,"cc",28299.949,6.00,6,0.100,79793.000,0.200,13846.000,0.300,2435.000,0.500,1653.000,1.000,508.000,5.000,0
"03/07/08","15:03:26",55002.000,"cc",28317.449,6.00,6,0.100,43166.000,0.200,8306.000,0.300,1758.000,0.500,1387.000,1.000,385.000,5.000,0
"03/07/08","15:03:32",73039.000,"cc",28280.156,6.00,6,0.100,58495.000,0.200,10662.000,0.300,1994.000,0.500,1496.000,1.000,392.000,5.000,0
"03/07/08","15:03:38",58675.000,"cc",28395.633,6.00,6,0.100,45750.000,0.200,8982.000,0.300,1991.000,0.500,1541.000,1.000,411.000,5.000,0
"03/07/08","15:03:44",78027.000,"cc",28336.201,6.00,6,0.100,61316.000,0.200,11832.000,0.300,2476.000,0.500,1858.000,1.000,545.000,5.000,0
"03/07/08","15:03:50",76046.000,"cc",28253.750,6.00,6,0.100,59995.000,0.200,11399.000,0.300,2378.000,0.500,1730.000,1.000,544.000,5.000,0
"03/07/08","15:03:56",78367.000,"cc",28266.697,6.00,6,0.100,62244.000,0.200,11590.000,0.300,2268.000,0.500,1715.000,1.000,550.000,5.000,0
"03/07/08","15:04:02",111443.000,"cc",28296.211,6.00,6,0.100,89506.000,0.200,16325.000,0.300,2865.000,0.500,2087.000,1.000,660.000,5.000,0
"03/07/08","15:04:08",86531.000,"cc",28379.662,6.00,6,0.100,69702.000,0.200,12394.000,0.300,2280.000,0.500,1685.000,1.000,470.000,5.000,0
"03/07/08","15:04:14",62806.000,"cc",28308.936,6.00,6,0.100,48805.000,0.200,9713.000,0.300,2173.000,0.500,1642.000,1.000,473.000,5.000,0
"03/07/08","15:04:20",60641.000,"cc",28307.770,6.00,6,0.100,47121.000,0.200,9328.000,0.300,2122.000,0.500,1609.000,1.000,461.000,5.000,0
"03/07/08","15:04:26",77196.000,"cc",28349.486,6.00,6,0.100,60641.000,0.200,11636.000,0.300,2422.000,0.500,1925.000,1.000,572.000,5.000,0
"03/07/08","15:04:32",91548.000,"cc",28369.268,6.00,6,0.100,73640.000,0.200,13346.000,0.300,2342.000,0.500,1685.000,1.000,535.000,5.000,0
"03/07/08","15:04:38",57113.000,"cc",28242.129,6.00,6,0.100,44354.000,0.200,8828.000,0.300,1982.000,0.500,1515.000,1.000,434.000,5.000,0
"03/07/08","15:04:44",62782.000,"cc",28334.811,6.00,6,0.100,47822.000,0.200,9944.000,0.300,2542.000,0.500,1925.000,1.000,549.000,5.000,0
"03/07/08","15:04:50",57094.000,"cc",28314.897,6.00,6,0.100,43774.000,0.200,8922.000,0.300,2193.000,0.500,1728.000,1.000,477.000,5.000,0
"03/07/08","15:04:56",55734.000,"cc",28310.150,6.00,6,0.100,42988.000,0.200,8917.000,0.300,1911.000,0.500,1507.000,1.000,411.000,5.000,0
"03/07/08","15:05:02",62808.000,"cc",28312.547,6.00,6,0.100,48787.000,0.200,9539.000,0.300,2295.000,0.500,1690.000,1.000,497.000,5.000,0
"03/07/08","15:05:08",47596.000,"cc",28342.055,6.00,6,0.100,35509.000,0.200,8009.000,0.300,2069.000,0.500,1594.000,1.000,415.000,5.000,0
"03/07/08","15:05:14",45713.000,"cc",28265.565,6.00,6,0.100,34572.000,0.200,7459.000,0.300,1874.000,0.500,1411.000,1.000,397.000,5.000,0
"03/07/08","15:05:20",61520.000,"cc",28322.822,6.00,6,0.100,47541.000,0.200,9568.000,0.300,2261.000,0.500,1677.000,1.000,473.000,5.000,0
"03/07/08","15:05:26",67199.000,"cc",28309.824,6.00,6,0.100,52994.000,0.200,10282.000,0.300,2026.000,0.500,1486.000,1.000,411.000,5.000,0
"03/07/08","15:05:32",105303.000,"cc",28300.035,6.00,6,0.100,85532.000,0.200,15538.000,0.300,2308.000,0.500,1502.000,1.000,423.000,5.000,0
"03/07/08","15:05:38",59838.000,"cc",28353.666,6.00,6,0.100,46394.000,0.200,9419.000,0.300,2029.000,0.500,1565.000,1.000,431.000,5.000,0
"03/07/08","15:05:44",73307.000,"cc",28313.229,6.00,6,0.100,57611.000,0.200,11024.000,0.300,2412.000,0.500,1737.000,1.000,523.000,5.000,0
"03/07/08","15:05:50",54706.000,"cc",28324.053,6.00,6,0.100,42053.000,0.200,8639.000,0.300,2079.000,0.500,1517.000,1.000,418.000,5.000,0
"03/07/08","15:05:56",84811.000,"cc",28301.451,6.00,6,0.100,68038.000,0.200,12414.000,0.300,2330.000,0.500,1563.000,1.000,466.000,5.000,0
"03/07/08","15:06:02",73490.000,"cc",28321.098,6.00,6,0.100,58124.000,0.200,10944.000,0.300,2310.000,0.500,1621.000,1.000,491.000,5.000,0
"03/07/08","15:06:08",113003.000,"cc",28321.617,6.00,6,0.100,90310.000,0.200,16830.000,0.300,3211.000,0.500,2021.000,1.000,631.000,5.000,0
"03/07/08","15:06:14",96873.000,"cc",28298.367,6.00,6,0.100,77777.000,0.200,14186.000,0.300,2638.000,0.500,1761.000,1.000,511.000,5.000,0
"03/07/08","15:06:20",95274.000,"cc",28364.418,6.00,6,0.100,76887.000,0.200,13774.000,0.300,2408.000,0.500,1723.000,1.000,481.000,5.000,1.000
"03/07/08","15:06:26",98006.000,"cc",28355.953,6.00,6,0.100,78376.000,0.200,14533.000,0.300,2701.000,0.500,1842.000,1.000,554.000,5.000,0
"03/07/08","15:06:32",135682.000,"cc",28279.176,6.00,6,0.100,110694.000,0.200,19356.000,0.300,3044.000,0.500,1980.000,1.000,608.000,5.000,0
"03/07/08","15:06:38",90574.000,"cc",28340.785,6.00,6,0.100,73295.000,0.200,13197.000,0.300,2222.000,0.500,1489.000,1.000,371.000,5.000,0
"03/07/08","15:06:44",78928.000,"cc",28261.811,6.00,6,0.100,64049.000,0.200,11408.000,0.300,1811.000,0.500,1317.000,1.000,343.000,5.000,0
"03/07/08","15:06:50",112133.000,"cc",28277.869,6.00,6,0.100,91716.000,0.200,16076.000,0.300,2336.000,0.500,1600.000,1.000,405.000,5.000,0
"03/07/08","15:06:56",89507.000,"cc",28294.068,6.00,6,0.100,71856.000,0.200,13045.000,0.300,2412.000,0.500,1719.000,1.000,475.000,5.000,0
"03/07/08","15:07:02",82390.000,"cc",28299.586,6.00,6,0.100,65927.000,0.200,12121.000,0.300,2243.000,0.500,1667.000,1.000,432.000,5.000,0
"03/07/08","15:07:08",62599.000,"cc",28320.033,6.00,6,0.100,49153.000,0.200,9531.000,0.300,2033.000,0.500,1486.000,1.000,396.000,5.000,0
"03/07/08","15:07:14",78421.000,"cc",28340.932,6.00,6,0.100,62239.000,0.200,11665.000,0.300,2323.000,0.500,1692.000,1.000,502.000,5.000,0
"03/07/08","15:07:20",84263.000,"cc",28308.455,6.00,6,0.100,67662.000,0.200,12217.000,0.300,2318.000,0.500,1605.000,1.000,461.000,5.000,0
"03/07/08","15:07:26",61567.000,"cc",28382.348,6.00,6,0.100,47789.000,0.200,9533.000,0.300,2187.000,0.500,1612.000,1.000,446.000,5.000,0
"03/07/08","15:07:32",83772.000,"cc",28334.315,6.00,6,0.100,66231.000,0.200,12550.000,0.300,2636.000,0.500,1844.000,1.000,511.000,5.000,0
"03/07/08","15:07:38",106968.000,"cc",28302.705,6.00,6,0.100,84520.000,0.200,16336.000,0.300,3255.000,0.500,2246.000,1.000,611.000,5.000,0
"03/07/08","15:07:44",89524.000,"cc",28324.996,6.00,6,0.100,71059.000,0.200,13314.000,0.300,2693.000,0.500,1978.000,1.000,480.000,5.000,0
"03/07/08","15:07:50",107714.000,"cc",28275.457,6.00,6,0.100,86505.000,0.200,15787.000,0.300,2876.000,0.500,1990.000,1.000,556.000,5.000,0
"03/07/08","15:07:56",86062.000,"cc",28275.893,6.00,6,0.100,68731.000,0.200,12767.000,0.300,2363.000,0.500,1679.000,1.000,522.000,5.000,0
"03/07/08","15:08:02",87168.000,"cc",28348.789,6.00,6,0.100,69498.000,0.200,12899.000,0.300,2499.000,0.500,1774.000,1.000,498.000,5.000,0
"03/07/08","15:08:08",72301.000,"cc",28325.639,6.00,6,0.100,57288.000,0.200,10854.000,0.300,2165.000,0.500,1556.000,1.000,438.000,5.000,0
"03/07/08","15:08:14",59273.000,"cc",28397.850,6.00,6,0.100,46372.000,0.200,9093.000,0.300,1978.000,0.500,1419.000,1.000,411.000,5.000,0
"03/07/08","15:08:20",66659.000,"cc",28299.232,6.00,6,0.100,52266.000,0.200,10115.000,0.300,2233.000,0.500,1630.000,1.000,415.000,5.000,0
"03/07/08","15:08:26",64343.000,"cc",28197.324,6.00,6,0.100,49717.000,0.200,9958.000,0.300,2357.000,0.500,1826.000,1.000,485.000,5.000,0
"03/07/08","15:08:32",50920.000,"cc",28303.877,6.00,6,0.100,39751.000,0.200,7911.000,0.300,1686.000,0.500,1276.000,1.000,296.000,5.000,0
"03/07/08","15:08:38",78726.000,"cc",28326.637,6.00,6,0.100,63233.000,0.200,11582.000,0.300,2124.000,0.500,1392.000,1.000,395.000,5.000,0
"03/07/08","15:08:44",61161.000,"cc",28310.145,6.00,6,0.100,48118.000,0.200,9425.000,0.300,1882.000,0.500,1381.000,1.000,355.000,5.000,0
"03/07/08","15:08:50",71003.000,"cc",28306.658,6.00,6,0.100,56452.000,0.200,10434.000,0.300,2200.000,0.500,1509.000,1.000,408.000,5.000,0
"03/07/08","15:08:56",58167.000,"cc",28377.139,6.00,6,0.100,45168.000,0.200,9001.000,0.300,2066.000,0.500,1514.000,1.000,418.000,5.000,0
"03/07/08","15:09:02",65645.000,"cc",28281.527,6.00,6,0.100,51104.000,0.200,10029.000,0.300,2200.000,0.500,1786.000,1.000,526.000,5.000,0
"03/07/08","15:09:08",41863.000,"cc",28312.645,6.00,6,0.100,31682.000,0.200,6882.000,0.300,1697.000,0.500,1283.000,1.000,319.000,5.000,0
"03/07/08","15:09:14",44028.000,"cc",28273.412,6.00,6,0.100,33131.000,0.200,7298.000,0.300,1831.000,0.500,1388.000,1.000,380.000,5.000,0
"03/07/08","15:09:20",40236.000,"cc",28412.793,6.00,6,0.100,30138.000,0.200,6654.000,0.300,1759.000,0.500,1356.000,1.000,329.000,5.000,0
"03/07/08","15:09:26",39523.000,"cc",28305.104,6.00,6,0.100,28841.000,0.200,6823.000,0.300,1922.000,0.500,1482.000,1.000,455.000,5.000,0
"03/07/08","15:09:32",36556.000,"cc",28299.539,6.00,6,0.100,26802.000,0.200,6323.000,0.300,1635.000,0.500,1444.000,1.000,352.000,5.000,0
"03/07/08","15:09:38",41085.000,"cc",28300.254,6.00,6,0.100,30797.000,0.200,6950.000,0.300,1669.000,0.500,1328.000,1.000,341.000,5.000,0
"03/07/08","15:09:44",51996.000,"cc",28290.504,6.00,6,0.100,39606.000,0.200,8414.000,0.300,2079.000,0.500,1469.000,1.000,428.000,5.000,0
"03/07/08","15:09:50",41425.000,"cc",28300.574,6.00,6,0.100,30780.000,0.200,7002.000,0.300,1807.000,0.500,1450.000,1.000,386.000,5.000,0
"03/07/08","15:09:56",45962.000,"cc",28405.492,6.00,6,0.100,35006.000,0.200,7501.000,0.300,1714.000,0.500,1376.000,1.000,365.000,5.000,0
"03/07/08","15:10:02",43163.000,"cc",28320.492,6.00,6,0.100,32347.000,0.200,7295.000,0.300,1777.000,0.500,1385.000,1.000,359.000,5.000,0
"03/07/08","15:10:08",48940.000,"cc",28288.611,6.00,6,0.100,36855.000,0.200,7992.000,0.300,2062.000,0.500,1555.000,1.000,476.000,5.000,0
"03/07/08","15:10:14",42351.000,"cc",28208.910,6.00,6,0.100,31829.000,0.200,7112.000,0.300,1707.000,0.500,1344.000,1.000,359.000,5.000,0
"03/07/08","15:10:20",43938.000,"cc",28346.065,6.00,6,0.100,32862.000,0.200,7391.000,0.300,1847.000,0.500,1447.000,1.000,391.000,5.000,0
"03/07/08","15:10:26",48252.000,"cc",28342.690,6.00,6,0.100,36700.000,0.200,7906.000,0.300,1821.000,0.500,1448.000,1.000,377.000,5.000,0
"03/07/08","15:10:32",45925.000,"cc",28367.596,6.00,6,0.100,34957.000,0.200,7431.000,0.300,1750.000,0.500,1405.000,1.000,382.000,5.000,0
"03/07/08","15:10:38",51085.000,"cc",28299.197,6.00,6,0.100,38894.000,0.200,8218.000,0.300,1985.000,0.500,1551.000,1.000,437.000,5.000,0
"03/07/08","15:10:44",76496.000,"cc",28314.037,6.00,6,0.100,60687.000,0.200,11261.000,0.300,2327.000,0.500,1710.000,1.000,511.000,5.000,0
"03/07/08","15:10:50",56379.000,"cc",28290.947,6.00,6,0.100,43686.000,0.200,8708.000,0.300,1984.000,0.500,1545.000,1.000,456.000,5.000,0
"03/07/08","15:10:56",47966.000,"cc",28399.898,6.00,6,0.100,36917.000,0.200,7534.000,0.300,1822.000,0.500,1301.000,1.000,392.000,5.000,0
"03/07/08","15:11:02",47580.000,"cc",28303.102,6.00,6,0.100,36704.000,0.200,7513.000,0.300,1698.000,0.500,1321.000,1.000,344.000,5.000,0
"03/07/08","15:11:08",53473.000,"cc",28350.621,6.00,6,0.100,41641.000,0.200,8301.000,0.300,1791.000,0.500,1364.000,1.000,376.000,5.000,0
"03/07/08","15:11:14",66625.000,"cc",28247.496,6.00,6,0.100,51606.000,0.200,10467.000,0.300,2284.000,0.500,1760.000,1.000,508.000,5.000,0
"03/07/08","15:11:20",63061.000,"cc",28298.756,6.00,6,0.100,49314.000,0.200,9627.000,0.300,2071.000,0.500,1597.000,1.000,452.000,5.000,0
"03/07/08","15:11:26",51313.000,"cc",28367.826,6.00,6,0.100,39935.000,0.200,7963.000,0.300,1728.000,0.500,1333.000,1.000,354.000,5.000,0
"03/07/08","15:11:32",66633.000,"cc",28295.727,6.00,6,0.100,52502.000,0.200,10066.000,0.300,2127.000,0.500,1512.000,1.000,426.000,5.000,0
"03/07/08","15:11:38",84754.000,"cc",28173.213,6.00,6,0.100,68100.000,0.200,12406.000,0.300,2263.000,0.500,1553.000,1.000,432.000,5.000,0
"03/07/08","15:11:44",83201.000,"cc",28319.107,6.00,6,0.100,66556.000,0.200,12071.000,0.300,2418.000,0.500,1674.000,1.000,482.000,5.000,0
"03/07/08","15:11:50",105264.000,"cc",28437.486,6.00,6,0.100,85543.000,0.200,15104.000,0.300,2462.000,0.500,1650.000,1.000,505.000,5.000,0
"03/07/08","15:11:56",141030.000,"cc",28297.947,6.00,6,0.100,115369.000,0.200,19961.000,0.300,3088.000,0.500,1984.000,1.000,628.000,5.000,0
"03/07/08","15:12:02",163233.000,"cc",28239.783,6.00,6,0.100,133425.000,0.200,23705.000,0.300,3412.000,0.500,2078.000,1.000,613.000,5.000,0
"03/07/08","15:12:08",181217.000,"cc",28326.078,6.00,6,0.100,149893.000,0.200,25691.000,0.300,3193.000,0.500,1897.000,1.000,543.000,5.000,0
"03/07/08","15:12:14",114875.000,"cc",28363.143,6.00,6,0.100,94757.000,0.200,16018.000,0.300,2276.000,0.500,1421.000,1.000,403.000,5.000,0
"03/07/08","15:12:20",71125.000,"cc",28310.551,6.00,6,0.100,56902.000,0.200,10630.000,0.300,1954.000,0.500,1314.000,1.000,325.000,5.000,0
"03/07/08","15:12:26",55814.000,"cc",28279.889,6.00,6,0.100,43608.000,0.200,8721.000,0.300,1800.000,0.500,1331.000,1.000,354.000,5.000,0
"03/07/08","15:12:32",55535.000,"cc",28322.623,6.00,6,0.100,43297.000,0.200,8691.000,0.300,1832.000,0.500,1368.000,1.000,347.000,5.000,0
"03/07/08","15:12:38",65898.000,"cc",28340.264,6.00,6,0.100,51091.000,0.200,10411.000,0.300,2225.000,0.500,1703.000,1.000,468.000,5.000,0
"03/07/08","15:12:44",40084.000,"cc",28292.877,6.00,6,0.100,30084.000,0.200,6764.000,0.300,1639.000,0.500,1253.000,1.000,344.000,5.000,0
"03/07/08","15:12:50",72030.000,"cc",28293.082,6.00,6,0.100,56271.000,0.200,11044.000,0.300,2466.000,0.500,1763.000,1.000,486.000,5.000,0
"03/07/08","15:12:56",69906.000,"cc",28360.625,6.00,6,0.100,55722.000,0.200,10513.000,0.300,1921.000,0.500,1391.000,1.000,359.000,5.000,0
"03/07/08","15:13:02",120870.000,"cc",28250.127,6.00,6,0.100,98668.000,0.200,17481.000,0.300,2579.000,0.500,1644.000,1.000,498.000,5.000,0
"03/07/08","15:13:08",78407.000,"cc",28289.277,6.00,6,0.100,62980.000,0.200,11553.000,0.300,2091.000,0.500,1375.000,1.000,408.000,5.000,0
"03/07/08","15:13:14",75547.000,"cc",28334.307,6.00,6,0.100,60614.000,0.200,11196.000,0.300,2094.000,0.500,1289.000,1.000,354.000,5.000,0
"03/07/08","15:13:20",97614.000,"cc",28362.275,6.00,6,0.100,79393.000,0.200,14012.000,0.300,2232.000,0.500,1510.000,1.000,467.000,5.000,0
"03/07/08","15:13:26",93913.000,"cc",28315.234,6.00,6,0.100,76426.000,0.200,13566.000,0.300,2153.000,0.500,1372.000,1.000,396.000,5.000,0
"03/07/08","15:13:32",101467.000,"cc",28373.438,6.00,6,0.100,82841.000,0.200,14500.000,0.300,2277.000,0.500,1486.000,1.000,363.000,5.000,0
"03/07/08","15:13:38",98895.000,"cc",28294.422,6.00,6,0.100,80619.000,0.200,14165.000,0.300,2249.000,0.500,1426.000,1.000,436.000,5.000,0
"03/07/08","15:13:44",93321.000,"cc",28346.260,6.00,6,0.100,76135.000,0.200,13444.000,0.300,2038.000,0.500,1312.000,1.000,392.000,5.000,0
"03/07/08","15:13:50",88793.000,"cc",28389.205,6.00,6,0.100,70682.000,0.200,13325.000,0.300,2611.000,0.500,1697.000,1.000,478.000,5.000,0
"03/07/08","15:13:56",115714.000,"cc",28322.291,6.00,6,0.100,94598.000,0.200,16552.000,0.300,2559.000,0.500,1573.000,1.000,432.000,5.000,0
"03/07/08","15:14:02",69111.000,"cc",28299.801,6.00,6,0.100,54562.000,0.200,10576.000,0.300,2137.000,0.500,1440.000,1.000,396.000,5.000,0
"03/07/08","15:14:08",63421.000,"cc",28248.941,6.00,6,0.100,49379.000,0.200,9995.000,0.300,2115.000,0.500,1508.000,1.000,424.000,5.000,0
"03/07/08","15:14:14",50617.000,"cc",28222.479,6.00,6,0.100,38899.000,0.200,8138.000,0.300,1889.000,0.500,1351.000,1.000,340.000,5.000,0
"03/07/08","15:14:20",54186.000,"cc",28322.666,6.00,6,0.100,41623.000,0.200,8885.000,0.300,1940.000,0.500,1371.000,1.000,367.000,5.000,0
"03/07/08","15:14:26",61891.000,"cc",28305.680,6.00,6,0.100,47971.000,0.200,9812.000,0.300,2225.000,0.500,1494.000,1.000,389.000,5.000,0
"03/07/08","15:14:32",74628.000,"cc",28337.885,6.00,6,0.100,57874.000,0.200,11820.000,0.300,2627.000,0.500,1824.000,1.000,483.000,5.000,0
"03/07/08","15:14:38",58905.000,"cc",28348.779,6.00,6,0.100,45834.000,0.200,9276.000,0.300,2044.000,0.500,1388.000,1.000,363.000,5.000,0
"03/07/08","15:14:44",62382.000,"cc",28239.156,6.00,6,0.100,48726.000,0.200,9804.000,0.300,2087.000,0.500,1393.000,1.000,372.000,5.000,0
"03/07/08","15:14:50",103068.000,"cc",28352.889,6.00,6,0.100,83739.000,0.200,15041.000,0.300,2405.000,0.500,1481.000,1.000,402.000,5.000,0
"03/07/08","15:14:56",85195.000,"cc",28361.150,6.00,6,0.100,67158.000,0.200,12944.000,0.300,2689.000,0.500,1910.000,1.000,494.000,5.000,0
"03/07/08","15:15:02",86403.000,"cc",28339.711,6.00,6,0.100,69651.000,0.200,12747.000,0.300,2187.000,0.500,1450.000,1.000,368.000,5.000,0
"03/07/08","15:15:08",128116.000,"cc",28290.082,6.00,6,0.100,106907.000,0.200,17854.000,0.300,2079.000,0.500,1043.000,1.000,233.000,5.000,0
"03/07/08","15:15:14",191893.000,"cc",28332.035,6.00,6,0.100,158467.000,0.200,27733.000,0.300,3418.000,0.500,1782.000,1.000,493.000,5.000,0
"03/07/08","15:15:20",117259.000,"cc",28362.273,6.00,6,0.100,95574.000,0.200,16883.000,0.300,2795.000,0.500,1606.000,1.000,401.000,5.000,0
"03/07/08","15:15:26",102267.000,"cc",28266.658,6.00,6,0.100,82396.000,0.200,15081.000,0.300,2663.000,0.500,1686.000,1.000,441.000,5.000,0
"03/07/08","15:15:32",135276.000,"cc",28329.369,6.00,6,0.100,110910.000,0.200,19698.000,0.300,2667.000,0.500,1574.000,1.000,427.000,5.000,0
"03/07/08","15:15:38",132085.000,"cc",28359.578,6.00,6,0.100,108200.000,0.200,19061.000,0.300,2689.000,0.500,1665.000,1.000,470.000,5.000,0
"03/07/08","15:15:44",102875.000,"cc",28348.086,6.00,6,0.100,83521.000,0.200,14805.000,0.300,2481.000,0.500,1623.000,1.000,445.000,5.000,0
"03/07/08","15:15:50",59645.000,"cc",28253.609,6.00,6,0.100,46593.000,0.200,9407.000,0.300,1994.000,0.500,1301.000,1.000,350.000,5.000,0
"03/07/08","15:15:56",85508.000,"cc",28166.041,6.00,6,0.100,68854.000,0.200,12790.000,0.300,2160.000,0.500,1337.000,1.000,367.000,5.000,0
"03/07/08","15:16:02",61441.000,"cc",28421.338,6.00,6,0.100,49297.000,0.200,9305.000,0.300,1557.000,0.500,1046.000,1.000,236.000,5.000,0
"03/07/08","15:16:08",58535.000,"cc",28315.447,6.00,6,0.100,46668.000,0.200,9119.000,0.300,1503.000,0.500,1023.000,1.000,222.000,5.000,0
"03/07/08","15:16:14",89315.000,"cc",28326.111,6.00,6,0.100,73255.000,0.200,12804.000,0.300,1851.000,0.500,1155.000,1.000,250.000,5.000,0